This is the latest recevied weather packets stored in our database for station/object 9M4RBN-3. If no packets are shown the sender has not sent any weather packets the latest 10 day(s).
| Time | Temp. | Humidity | Pressure | Rain* | Wind** | Luminosity | Snow |
|---|---|---|---|---|---|---|---|
| 1787898847 | 26.11° C | 53% | 1016.4 hPa | - | - | - | - |
| 1787897947 | 26.11° C | 53% | 1016.5 hPa | - | - | - | - |
| 1787897047 | 26.11° C | 53% | 1016.8 hPa | - | - | - | - |
| 1787896147 | 26.11° C | 53% | 1017.1 hPa | - | - | - | - |
| 1787895289 | 26.11° C | 51% | 1017.6 hPa | - | - | - | - |
| 1787895247 | 26.11° C | 51% | 1017.6 hPa | - | - | - | - |
| 1787894347 | 26.11° C | 52% | 1017.8 hPa | - | - | - | - |
| 1787893447 | 26.67° C | 53% | 1017.8 hPa | - | - | - | - |
| 1787892546 | 26.67° C | 54% | 1017.9 hPa | - | - | - | - |
| 1787891646 | 27.22° C | 56% | 1018 hPa | - | - | - | - |
| 1787890746 | 27.78° C | 64% | 1018.1 hPa | - | - | - | - |
| 1787889846 | 28.33° C | 82% | 1018.1 hPa | - | - | - | - |
| 1787888946 | 28.33° C | 82% | 1018.1 hPa | - | - | - | - |
| 1787888048 | 27.78° C | 82% | 1018.4 hPa | - | - | - | - |
| 1787887148 | 27.78° C | 81% | 1018.4 hPa | - | - | - | - |
| 1787886248 | 27.78° C | 81% | 1018.8 hPa | - | - | - | - |
| 1787885347 | 27.22° C | 80% | 1019.3 hPa | - | - | - | - |
| 1787884448 | 27.22° C | 79% | 1019.5 hPa | - | - | - | - |
| 1787883547 | 27.22° C | 79% | 1019.7 hPa | - | - | - | - |
| 1787882647 | 27.22° C | 78% | 1019.5 hPa | - | - | - | - |
| 1787881747 | 26.67° C | 76% | 1019.4 hPa | - | - | - | - |
| 1787880847 | 26.67° C | 75% | 1019.4 hPa | - | - | - | - |
| 1787879947 | 26.67° C | 73% | 1019.3 hPa | - | - | - | - |
| 1787879047 | 26.11° C | 73% | 1019.2 hPa | - | - | - | - |
| 1787878147 | 26.11° C | 71% | 1019.2 hPa | - | - | - | - |
* Rain since midnight (hover to see other rain measurements)
** Current wind speed in m/s (hover to see current wind gust speed)